Home   Weather   Aschersleben   Past weeks

Flag for Germany Past Weather in Aschersleben, Saxony-Anhalt, Germany — Yesterday and Last 2 Weeks

Now
21 °F

Ice fog.


Feels Like: 15 °F
Forecast: 20 / 35 °F
Wind: 5 mph from Southwest

Location: Leipzig-Schkeuditz

Current Time: Dec 5, 2016 at 5:33:21 am

Latest Report: Dec 5, 2016 at 4:50 am


Visibility: 3 mi

Pressure: 30.36 "Hg

Humidity: 93%

Dew Point: 19 °F

Location of AscherslebenLocation

Past Weather in Aschersleben — Graph

°F

Aschersleben Temperature Yesterday

Maximum temperature yesterday: 34 °F (at 12:50 pm)
Minimum temperature yesterday: 21 °F (at 5:50 am)
Average temperature yesterday: 26 °F

High & Low Weather Summary for the Past Weeks

 TemperatureHumidityPressure
High55 °F (Nov 22, 1:20 pm)100% (Nov 23, 1:20 am)30.57 "Hg (Nov 23, 1:20 am)
Low19 °F (Dec 5, 2:50 am)54% (Nov 20, 2:20 pm)29.59 "Hg (Nov 20, 1:50 pm)
Average37 °F87%30.14 "Hg
* Reported Nov 20 4:20 am — Dec 5 4:20 am, Aschersleben, Weather by CustomWeather, © 2016

Note: Actual official high and low records may vary slightly from our data, if they occured in-between our weather recording intervals... More about our weather records

Advertising

Aschersleben Weather History for the Previous 24 Hours

Scroll right to see more
 ConditionsComfort  
Time TempWeatherWind HumidityBarometerVisibility
4:20 am
Mon, Dec 5
21 °FIce fog.5 mph93%30.36 "Hg2 mi
3:50 am21 °FIce fog.6 mph100%30.36 "Hg1 mi
3:20 am21 °FIce fog.8 mph93%30.39 "Hg0 mi
2:50 am19 °FIce fog.7 mph100%30.39 "Hg0 mi
2:20 am21 °FIce fog.5 mph93%30.39 "Hg0 mi
1:50 am21 °FIce fog.3 mph100%30.39 "Hg0 mi
1:20 am23 °FIce fog.3 mph93%30.39 "Hg0 mi
12:50 am23 °FIce fog.6 mph100%30.39 "Hg1 mi
12:20 am23 °FIce fog.5 mph93%30.42 "Hg1 mi
11:50 pm
Sun, Dec 4
27 °FIce fog.5 mph93%30.42 "Hg2 mi
11:20 pm25 °FIce fog.5 mph100%30.42 "Hg2 mi
10:50 pm23 °FIce fog.7 mph93%30.42 "Hg1 mi
10:20 pm25 °FIce fog.5 mph100%30.42 "Hg1 mi
9:50 pm23 °FIce fog.6 mph100%30.42 "Hg1 mi
9:20 pm27 °FIce fog.6 mph100%30.42 "Hg1 mi
8:50 pm27 °FIce fog.5 mph100%30.42 "Hg1 mi
8:20 pm27 °FIce fog.5 mph100%30.42 "Hg2 mi
7:50 pm28 °FIce fog.5 mph93%30.42 "Hg3 mi
7:20 pm25 °FIce fog.6 mph100%30.42 "Hg2 mi
6:50 pm27 °FIce fog.5 mph100%30.42 "Hg1 mi
6:20 pm27 °FIce fog.5 mph93%30.42 "Hg1 mi
5:50 pm25 °FIce fog.5 mph93%30.42 "Hg2 mi
5:20 pm28 °FIce fog.3 mph100%30.42 "Hg2 mi
4:50 pm28 °FClear.3 mph93%30.42 "Hg4 mi
4:20 pm30 °FClear.5 mph93%30.42 "Hg5 mi
3:50 pm32 °FSunny.1 mph87%30.42 "Hg10 mi
3:20 pm32 °FSunny.1 mph87%30.42 "Hg10 mi
2:50 pm34 °FSunny.2 mph81%30.42 "Hg10 mi
2:20 pm34 °FSunny.2 mph81%30.42 "Hg10 mi
1:50 pm34 °FSunny.2 mph81%30.42 "Hg10 mi
1:20 pm34 °FSunny.2 mph81%30.42 "Hg10 mi
12:50 pm34 °FSunny.2 mph81%30.42 "Hg10 mi
12:20 pm32 °FPassing clouds.3 mph87%30.42 "HgN/A
11:50 am32 °FClear.3 mph87%30.42 "Hg6 mi
11:20 am30 °FClear.3 mph93%30.42 "Hg5 mi
10:50 am28 °FClear.2 mph93%30.42 "Hg4 mi
10:20 am27 °FIce fog.3 mph100%30.42 "Hg3 mi
9:50 am27 °FIce fog.3 mph100%30.42 "Hg1 mi
9:20 am25 °FIce fog.3 mph93%30.42 "Hg2 mi
8:50 am23 °FScattered clouds.5 mph93%30.39 "Hg3 mi
8:20 am21 °FScattered clouds.6 mph100%30.39 "Hg3 mi
7:50 am21 °FIce fog.5 mph93%30.39 "Hg3 mi
7:20 am21 °FLight fog.2 mph100%30.39 "Hg4 mi
6:50 am21 °FLight fog.6 mph100%30.36 "Hg4 mi
6:20 am21 °FPassing clouds.5 mph93%30.36 "Hg6 mi
5:50 am21 °FPassing clouds.3 mph100%30.36 "Hg5 mi
5:20 am23 °FPassing clouds.5 mph93%30.36 "Hg5 mi
Weather by CustomWeather, © 2016

See weather overviewHow to use our weather pages